[[{"header":{"parameterUnit":"m.s-1","parameterCategory":1,"la1":30.2991,"la2":30.254,"lo1":-89.0895,"lo2":-89.0444,"dx":0.0017,"dy":0.0017,"nx":28,"ny":28,"refTime":"2023-01-09T03:00:00:Z","depth":0,"parameterNumber":2,"parameterNumberName":"U-component_of_WINDS"},"data":[0,0,0,0,0,0,0,0,0,0,0,0,0,0,0,0,0,0,0,0,0,0,0,0,0,0,0,0,0,0,0,0,0,0,0,0,0,0,0,0,0,0,0,0,0,0,0,0,0,0,0,0,0,0,0,0,0,0,0.9362,0.9362,0,0.9386,0.9386,0.9386,0.9377,0.9376,0.9376,0.9375,0.9399,0.94,0.9401,0,0,0,0,0,0,0,0,0,0,0,0,0,0.9308,0.9309,0.9362,0.9362,0.9363,0.9386,0.9386,0.9386,0.9377,0.9376,0.9376,0.9375,0.9398,0.94,0.9401,0,0,0,0,0,0,0,0,0,0,0,0,0,0.9332,0.931,0.9362,0.9361,0.9361,0.9386,0.9386,0.9386,0.9377,0.9376,0.9376,0.9375,0.9398,0.9399,0.9401,0.9428,0,0,0.9406,0.9407,0,0,0,0,0,0,0,0,0.933,0.9334,0.9361,0.9361,0.9361,0.9378,0.9376,0.94,0.9377,0.9371,0.9375,0.9374,0.9392,0.9394,0.9401,0.9429,0.943,0.9406,0.9407,0.9408,0.9409,0,0,0,0,0,0,0,0.9329,0.9333,0.9371,0.9361,0.9361,0.9359,0.9361,0.938,0.9386,0.9372,0.9371,0.9374,0.9392,0.9399,0.9401,0.943,0.9406,0.9408,0.9409,0.941,0.9482,0.9483,0,0,0,0,0,0,0.9327,0.9331,0.9371,0.9372,0.9344,0.9361,0.9363,0.9373,0.9386,0.9387,0.9375,0.9373,0.9396,0.9399,0.9402,0.9434,0.9408,0.941,0.9411,0.9481,0.9482,0.9483,0,0,0,0,0,0,0.9326,0.9331,0.937,0.9352,0.9356,0.9362,0.9373,0.9374,0.9381,0.9388,0.9389,0.938,0.9396,0.9399,0.9422,0.9435,0.9411,0.9412,0.948,0.9482,0.9483,0.9498,0,0,0,0,0,0,0.9325,0.933,0.9341,0.9352,0.9357,0.9389,0.9374,0.9375,0.9384,0.9382,0.9394,0.9395,0.9396,0.9419,0.9423,0.9436,0.9413,0.9479,0.9481,0.9482,0.9497,0.95,0.9503,0,0,0,0,0,0.9323,0.9344,0.9341,0.9346,0.937,0.939,0.9393,0.9394,0.9385,0.9395,0.94,0.9394,0.9433,0.9421,0.9426,0.944,0.9478,0.948,0.9482,0.9495,0.95,0.9503,0,0,0,0,0,0,0.9334,0.9345,0.9343,0.9368,0.9378,0.9388,0.9401,0.9398,0.9411,0.9409,0.9409,0.9412,0.9434,0.9439,0.9427,0.9467,0.9454,0.9457,0.9462,0.9466,0.947,0.9468,0.9415,0,0,0,0,0,0.934,0.9355,0.9364,0.9386,0.9391,0.9395,0.9404,0.9404,0.9414,0.9418,0.9424,0.9434,0.9448,0.9458,0.9471,0.9498,0.95,0.951,0.9513,0.9515,0.9518,0.9532,0.9536,0.949,0.949,0.949,0,0,0.9351,0.9359,0.9369,0.9388,0.9396,0.9411,0.9399,0.9416,0.9427,0.942,0.9442,0.9447,0.9458,0.9482,0.9493,0.9487,0.9531,0.9518,0.952,0.9521,0.9535,0.9539,0.9543,0.9491,0.9491,0.9491,0,0,0.938,0.9387,0.9406,0.9415,0.9427,0.943,0.9434,0.9445,0.9448,0.947,0.9465,0.9479,0.9503,0.9511,0.9519,0.9551,0.9546,0.9555,0.9572,0.9586,0.9589,0.9593,0.9604,0.9608,0.9558,0.9558,0.9558,0,0.9392,0.9416,0.9416,0.9434,0.9443,0.9438,0.9457,0.9464,0.948,0.9486,0.9479,0.951,0.9517,0.9544,0.9551,0.9558,0.9563,0.9554,0.9589,0.9592,0.9595,0.9606,0.961,0.9559,0.9559,0.9559,0.9559,0,0.943,0.9447,0.9461,0.9476,0.9487,0.9505,0.9508,0.9518,0.9517,0.9521,0.9543,0.9552,0.9567,0.9573,0.9572,0.9599,0.9595,0.9589,0.9576,0.96,0.9611,0.9615,0.956,0.956,0.956,0.956,0,0,0.9466,0.9483,0.9488,0.9495,0.9508,0.952,0.9539,0.9554,0.9562,0.9574,0.9589,0.961,0.9604,0.9612,0.9612,0.9624,0.9649,0.9616,0.9617,0.9622,0.968,0.9685,0.9689,0.9647,0.9648,0.9648,0.9679,0,0.9496,0.9528,0.9529,0.9558,0.9573,0.9569,0.9584,0.9594,0.9598,0.9611,0.9616,0.9631,0.9622,0.9627,0.9639,0.9644,0.9661,0.9642,0.966,0.9661,0.9657,0.9695,0.97,0.9728,0.9683,0.9684,0.9684,0,0.9534,0.9547,0.9578,0.9589,0.9595,0.9609,0.9623,0.9636,0.9647,0.9649,0.9659,0.9657,0.9675,0.9663,0.9688,0.9674,0.9682,0.9686,0.9687,0.9688,0.9674,0.9697,0.9737,0.9741,0.969,0.969,0.9689,0,0.9557,0.9582,0.9603,0.961,0.9623,0.9633,0.964,0.965,0.9659,0.9671,0.9677,0.9691,0.9699,0.971,0.9712,0.9703,0.9737,0.9725,0.9739,0.9739,0.9747,0.9746,0.9789,0.9752,0.9752,0.9752,0.9752,0,0.959,0.9608,0.9614,0.9627,0.9648,0.965,0.967,0.9676,0.9685,0.9699,0.9696,0.9709,0.9711,0.9725,0.9727,0.9747,0.9751,0.9753,0.9753,0.9753,0.9753,0.9758,0.9756,0.9753,0.9753,0.9753,0.9753,0,0.9619,0.9623,0.9646,0.9657,0.9661,0.9676,0.9685,0.9698,0.9702,0.9719,0.9724,0.973,0.9746,0.9749,0.9768,0.9769,0.9793,0.9792,0.979,0.9789,0.9804,0.9802,0.9851,0.9857,0.9817,0.9818,0.9818,0,0.9639,0.9653,0.9666,0.9676,0.9682,0.9697,0.9707,0.9709,0.9719,0.9733,0.9744,0.9759,0.9772,0.9798,0.9804,0.9818,0.9817,0.9833,0.9819,0.9818,0.9817,0.9816,0.9817,0.9835,0.9836,0.9836,0.9836,0,0.9674,0.9676,0.969,0.9705,0.9716,0.9728,0.9739,0.9747,0.975,0.9762,0.9778,0.9788,0.9808,0.9823,0.9838,0.9844,0.9841,0.9841,0.9845,0.9845,0.9843,0.9844,0.9797,0.9839,0.9839,0.9839,0.9839,0.9839,0.9699,0.9712,0.9723,0.9739,0.9747,0.9758,0.977,0.9776,0.979,0.9806,0.9807,0.9825,0.9835,0.9855,0.9862,0.9876,0.9871,0.9877,0.9878,0.988,0.9881,0.9841,0.9878,0.9878,0.9878,0.9878,0.9878,0,0.9734,0.9742,0.9756,0.9772,0.9784,0.9781,0.9793,0.9803,0.9819,0.983,0.9842,0.9861,0.9877,0.9884,0.9899,0.9909,0.9908,0.9913,0.9912,0.9913,0.9884,0.9879,0.9913,0.9913,0.9913,0.9913,0.9913,0.9913,0.9754,0.9775,0.9778,0.9804,0.9811,0.9828,0.9836,0.9845,0.9854,0.9875,0.9888,0.9893,0.9902,0.9918,0.9932,0.9934,0.9939,0.9945,0.9946,0.9919,0.9915,0.9912,0.9907,0.9946,0.9946,0.9973,0.9973,0.9973]},{"header":{"parameterUnit":"m.s-1","parameterCategory":1,"la1":30.2991,"la2":30.254,"lo1":-89.0895,"lo2":-89.0444,"dx":0.0017,"dy":0.0017,"nx":28,"ny":28,"refTime":"2023-01-09T03:00:00:Z","depth":0,"parameterNumber":3,"parameterNumberName":"V-component_of_WINDS"},"data":[0,0,0,0,0,0,0,0,0,0,0,0,0,0,0,0,0,0,0,0,0,0,0,0,0,0,0,0,0,0,0,0,0,0,0,0,0,0,0,0,0,0,0,0,0,0,0,0,0,0,0,0,0,0,0,0,0,0,-2.1109,-2.1111,0,-2.123,-2.1232,-2.1233,-2.1261,-2.126,-2.1259,-2.1258,-2.1379,-2.1383,-2.1387,0,0,0,0,0,0,0,0,0,0,0,0,0,-2.0901,-2.0904,-2.1109,-2.1111,-2.1112,-2.123,-2.1232,-2.1233,-2.1261,-2.126,-2.1259,-2.1258,-2.1378,-2.1383,-2.1388,0,0,0,0,0,0,0,0,0,0,0,0,0,-2.1003,-2.0905,-2.1109,-2.114,-2.1144,-2.123,-2.1232,-2.1234,-2.1261,-2.126,-2.1259,-2.1257,-2.1376,-2.1382,-2.1388,-2.145,0,0,-2.1407,-2.1409,0,0,0,0,0,0,0,0,-2.0997,-2.1011,-2.1134,-2.1138,-2.1143,-2.1229,-2.1203,-2.1306,-2.1261,-2.1217,-2.1258,-2.1257,-2.133,-2.134,-2.1365,-2.1456,-2.1461,-2.1407,-2.1411,-2.1413,-2.1415,0,0,0,0,0,0,0,-2.099,-2.1006,-2.1157,-2.1136,-2.1141,-2.1148,-2.1161,-2.1222,-2.1279,-2.122,-2.1223,-2.1237,-2.1332,-2.1359,-2.1368,-2.1463,-2.1407,-2.1412,-2.1416,-2.1418,-2.1612,-2.1613,0,0,0,0,0,0,-2.0978,-2.1,-2.1153,-2.1161,-2.1066,-2.1153,-2.1167,-2.1203,-2.1278,-2.1289,-2.1238,-2.1238,-2.135,-2.1361,-2.1373,-2.1451,-2.1413,-2.1419,-2.1422,-2.161,-2.1612,-2.1614,0,0,0,0,0,0,-2.0973,-2.0991,-2.1148,-2.1081,-2.1101,-2.1158,-2.1197,-2.1206,-2.1233,-2.1292,-2.1301,-2.1255,-2.1349,-2.1364,-2.1431,-2.1456,-2.1422,-2.1427,-2.1608,-2.1611,-2.1613,-2.1608,0,0,0,0,0,0,-2.0967,-2.099,-2.1014,-2.1081,-2.1105,-2.1205,-2.1199,-2.1209,-2.1244,-2.1245,-2.131,-2.132,-2.1349,-2.1422,-2.1437,-2.1463,-2.1432,-2.1606,-2.1609,-2.1612,-2.1606,-2.161,-2.1613,0,0,0,0,0,-2.096,-2.1007,-2.1015,-2.1033,-2.1137,-2.1207,-2.122,-2.1254,-2.1245,-2.127,-2.1308,-2.1318,-2.1451,-2.1429,-2.1446,-2.1474,-2.1605,-2.1609,-2.1612,-2.1605,-2.1609,-2.1613,0,0,0,0,0,0,-2.094,-2.1016,-2.1026,-2.1097,-2.1145,-2.1211,-2.1244,-2.1257,-2.1308,-2.1307,-2.1346,-2.136,-2.1425,-2.1456,-2.1431,-2.1539,-2.1528,-2.1535,-2.1516,-2.1521,-2.1524,-2.1515,-2.1437,0,0,0,0,0,-2.0944,-2.0995,-2.1059,-2.1115,-2.1139,-2.1187,-2.1219,-2.1241,-2.1292,-2.1312,-2.1355,-2.1404,-2.1457,-2.149,-2.1542,-2.1611,-2.1626,-2.1639,-2.1642,-2.1645,-2.1651,-2.169,-2.1697,-2.1625,-2.1625,-2.1625,0,0,-2.0952,-2.1,-2.103,-2.1112,-2.1152,-2.1204,-2.1204,-2.1259,-2.1297,-2.132,-2.1387,-2.142,-2.1477,-2.1545,-2.1578,-2.1573,-2.1674,-2.1649,-2.1651,-2.1655,-2.1695,-2.1701,-2.1707,-2.1627,-2.1627,-2.1627,0,0,-2.0995,-2.1036,-2.1088,-2.1128,-2.119,-2.1222,-2.1234,-2.1299,-2.1322,-2.139,-2.1408,-2.1454,-2.1544,-2.1585,-2.1617,-2.1676,-2.1687,-2.1691,-2.1709,-2.1747,-2.1753,-2.1758,-2.178,-2.1787,-2.1697,-2.1697,-2.1697,0,-2.0997,-2.1077,-2.1112,-2.1167,-2.1203,-2.1227,-2.128,-2.1317,-2.1392,-2.1416,-2.141,-2.1525,-2.1565,-2.1643,-2.1658,-2.1683,-2.1698,-2.1684,-2.1749,-2.1755,-2.176,-2.1781,-2.1789,-2.1697,-2.1697,-2.1697,-2.1697,0,-2.1077,-2.1132,-2.1167,-2.124,-2.1279,-2.1332,-2.1376,-2.1412,-2.143,-2.1463,-2.1531,-2.158,-2.1643,-2.1663,-2.1681,-2.1745,-2.1741,-2.1742,-2.1731,-2.1767,-2.1787,-2.1796,-2.1697,-2.1697,-2.1697,-2.1697,0,0,-2.111,-2.1203,-2.1215,-2.1249,-2.1319,-2.1362,-2.1416,-2.1479,-2.1509,-2.1559,-2.1606,-2.1682,-2.1684,-2.1721,-2.1744,-2.1777,-2.1822,-2.1774,-2.1776,-2.1782,-2.1896,-2.1895,-2.1904,-2.1829,-2.1831,-2.1832,-2.1891,0,-2.1161,-2.126,-2.1294,-2.1376,-2.1428,-2.1452,-2.15,-2.1547,-2.1579,-2.1627,-2.1662,-2.1716,-2.1714,-2.1737,-2.1771,-2.1809,-2.1845,-2.1805,-2.1873,-2.1875,-2.1859,-2.1914,-2.1913,-2.1966,-2.1899,-2.1901,-2.1902,0,-2.1234,-2.1287,-2.1374,-2.1439,-2.1462,-2.1504,-2.1565,-2.161,-2.1665,-2.1686,-2.1728,-2.1748,-2.1806,-2.1792,-2.1872,-2.1844,-2.1874,-2.1897,-2.19,-2.1908,-2.1891,-2.1924,-2.1984,-2.1992,-2.1914,-2.1913,-2.1912,0,-2.125,-2.1343,-2.1408,-2.1436,-2.1513,-2.1542,-2.1575,-2.1629,-2.1665,-2.1717,-2.1741,-2.1799,-2.1831,-2.1875,-2.1911,-2.1898,-2.1988,-2.1977,-2.2007,-2.2006,-2.2025,-2.2024,-2.2091,-2.2044,-2.2044,-2.2043,-2.2043,0,-2.1303,-2.1356,-2.1416,-2.1456,-2.1516,-2.1555,-2.1612,-2.1647,-2.1695,-2.1742,-2.1766,-2.1809,-2.1853,-2.1902,-2.1931,-2.1993,-2.2007,-2.2025,-2.2032,-2.2024,-2.2021,-2.2044,-2.2041,-2.2046,-2.2045,-2.2045,-2.2044,0,-2.1331,-2.1374,-2.1446,-2.1513,-2.1532,-2.1573,-2.163,-2.167,-2.1703,-2.1762,-2.1778,-2.183,-2.1889,-2.1929,-2.2004,-2.2023,-2.2091,-2.2097,-2.2073,-2.2077,-2.2105,-2.2102,-2.219,-2.2204,-2.2146,-2.2147,-2.2147,0,-2.1363,-2.1404,-2.1477,-2.1511,-2.1544,-2.1598,-2.1635,-2.1675,-2.1712,-2.1779,-2.181,-2.1871,-2.1922,-2.2015,-2.2059,-2.2117,-2.2125,-2.2152,-2.2134,-2.2124,-2.2126,-2.2124,-2.2128,-2.2154,-2.2155,-2.2155,-2.2156,0,-2.1415,-2.1435,-2.1488,-2.1549,-2.1593,-2.1642,-2.1692,-2.1718,-2.1766,-2.1807,-2.1869,-2.1908,-2.1986,-2.2046,-2.2108,-2.2142,-2.2157,-2.2161,-2.2171,-2.2163,-2.2148,-2.2157,-2.2081,-2.2159,-2.2158,-2.2158,-2.2158,-2.2158,-2.1447,-2.1485,-2.1543,-2.1601,-2.1643,-2.1689,-2.173,-2.1769,-2.1821,-2.1889,-2.1909,-2.1973,-2.2027,-2.2113,-2.2147,-2.2198,-2.2195,-2.221,-2.2214,-2.2217,-2.2217,-2.2139,-2.2209,-2.2209,-2.2209,-2.2209,-2.2209,0,-2.1501,-2.154,-2.1593,-2.1663,-2.1709,-2.172,-2.1776,-2.1814,-2.187,-2.192,-2.197,-2.2041,-2.21,-2.2149,-2.221,-2.2241,-2.2249,-2.2255,-2.2254,-2.2261,-2.2215,-2.2201,-2.2248,-2.2248,-2.2248,-2.2248,-2.2248,-2.2248,-2.1535,-2.1601,-2.1627,-2.1714,-2.1752,-2.1816,-2.1847,-2.189,-2.193,-2.2008,-2.2058,-2.209,-2.214,-2.2205,-2.2259,-2.2272,-2.2294,-2.2298,-2.2313,-2.2269,-2.2264,-2.226,-2.2247,-2.2302,-2.2303,-2.2355,-2.2355,-2.2356]}]]